Location: Unspecified
(0.0000°N, 0.0000°E)
Time: 21:09:32
(UTC+00:00)

YAOGAN 20B - Visible Passes

Search period start: 29 April 2025 00:00
Search period end: 09 May 2025 00:00
Orbit: 825 x 1353 km, 63.4° (Epoch: 29 April)

Date Brightness Start Highest point End Pass type
(mag) Time Alt. Az. Time Alt. Az. Time Alt. Az.
30 Apr 7.3 21:08:26 10° NNW 21:10:22 19° N 21:10:22 19° N visible
01 May 6.9 20:19:36 10° N 20:22:53 24° NNE 20:22:53 24° NNE visible
02 May 7.0 19:31:59 10° NNE 19:35:27 17° NE 19:35:27 17° NE visible
02 May 7.1 21:19:31 10° NNW 21:22:35 26° NW 21:22:35 26° NW visible
03 May 6.1 20:29:48 10° NNW 20:35:14 47° N 20:35:14 47° N visible
04 May 6.0 19:40:52 10° N 19:47:59 38° ENE 19:47:59 38° ENE visible
04 May 7.3 21:31:39 10° NW 21:35:08 23° WNW 21:35:08 23° WNW visible
05 May 6.7 18:53:04 10° NNE 18:58:34 20° ENE 19:00:48 18° E visible
05 May 6.0 20:40:58 10° NW 20:47:57 56° W 20:47:57 56° W visible
06 May 5.4 19:51:10 10° NNW 19:59:18 77° ENE 20:00:50 62° SE visible
06 May 7.8 21:45:49 10° W 21:47:59 13° W 21:47:59 13° W visible
07 May 6.0 19:02:09 10° N 19:09:39 41° ENE 19:13:47 26° ESE visible
07 May 6.9 20:53:14 10° WNW 21:00:08 30° WSW 21:00:57 29° WSW visible
08 May 6.7 18:14:11 10° NNE 18:19:58 21° ENE 18:25:54 10° ESE visible
08 May 6.0 20:02:26 10° NW 20:10:23 56° WSW 20:13:58 35° S visible
